Вернуться в каталог

METEOR 2-5 DEB

LostPO
NORAD 28555·DEBRIS·🇷🇺 Russia

Запущен Oct 31, 1979 с Plesetsk Cosmodrome

Loading…

Ближайшие Пролёты (ближайшие 24 часа)

TLE

УстаревшееSource: Space-Track

Эпоха: Jun 10, 2026, 22:36 UTC

1 28555U 79095D   26161.94186480  .00205958  00000-0  67282-2 0  9997
2 28555  81.1447 245.9708 0007615 279.0616  80.9758 15.30848760246895

Отслеживайте METEOR 2-5 DEB в реальном времени с AllMySat

Download on the App Store